[[{"header":{"parameterUnit":"m.s-1","parameterCategory":1,"la1":30.2991,"la2":30.254,"lo1":-89.0895,"lo2":-89.0444,"dx":0.0017,"dy":0.0017,"nx":28,"ny":28,"refTime":"2022-11-08T09:00:00:Z","depth":0,"parameterNumber":2,"parameterNumberName":"U-component_of_WINDS"},"data":[0,0,0,0,0,0,0,0,0,0,0,0,0,0,0,0,0,0,0,0,0,0,0,0,0,0,0,0,0,0,0,0,0,0,0,0,0,0,0,0,0,0,0,0,0,0,0,0,0,0,0,0,0,0,0,0,0,0,-2.6608,-2.6608,0,-2.6585,-2.6584,-2.6584,-2.6522,-2.652,-2.6519,-2.6518,-2.6496,-2.6496,-2.6497,0,0,0,0,0,0,0,0,0,0,0,0,0,-2.6602,-2.6603,-2.6608,-2.6608,-2.6608,-2.6585,-2.6584,-2.6584,-2.6522,-2.652,-2.6519,-2.6517,-2.6495,-2.6496,-2.6497,0,0,0,0,0,0,0,0,0,0,0,0,0,-2.6594,-2.6603,-2.6608,-2.6574,-2.6571,-2.6585,-2.6584,-2.6584,-2.6522,-2.652,-2.6518,-2.6516,-2.6495,-2.6496,-2.6497,-2.6543,0,0,-2.65,-2.65,0,0,0,0,0,0,0,0,-2.6595,-2.6595,-2.6579,-2.6576,-2.6573,-2.6554,-2.6574,-2.657,-2.6523,-2.6541,-2.6518,-2.6515,-2.6517,-2.6516,-2.6516,-2.6542,-2.6541,-2.65,-2.6501,-2.6501,-2.6501,0,0,0,0,0,0,0,-2.6596,-2.6595,-2.6599,-2.6579,-2.6575,-2.656,-2.6557,-2.6573,-2.654,-2.6539,-2.6534,-2.6532,-2.6515,-2.6515,-2.6515,-2.6541,-2.65,-2.6501,-2.6502,-2.6502,-2.6605,-2.6607,0,0,0,0,0,0,-2.6601,-2.6596,-2.66,-2.6598,-2.6579,-2.6562,-2.6558,-2.6562,-2.654,-2.6535,-2.6534,-2.6529,-2.6514,-2.6514,-2.6514,-2.6567,-2.6501,-2.6502,-2.6503,-2.6603,-2.6605,-2.6608,0,0,0,0,0,0,-2.6601,-2.6602,-2.6601,-2.6596,-2.6595,-2.6564,-2.6569,-2.6563,-2.6563,-2.6536,-2.653,-2.654,-2.6513,-2.6513,-2.6536,-2.6565,-2.6503,-2.6503,-2.66,-2.6604,-2.6606,-2.6674,0,0,0,0,0,0,-2.6601,-2.6602,-2.6619,-2.6597,-2.6595,-2.6623,-2.6571,-2.6564,-2.6565,-2.6558,-2.6541,-2.6536,-2.6511,-2.6535,-2.6537,-2.6566,-2.6504,-2.6597,-2.6602,-2.6605,-2.6669,-2.6679,-2.6687,0,0,0,0,0,-2.6601,-2.6639,-2.662,-2.6621,-2.6615,-2.6625,-2.6624,-2.6594,-2.6567,-2.6584,-2.6567,-2.6536,-2.6562,-2.6538,-2.654,-2.6569,-2.6596,-2.66,-2.6605,-2.6664,-2.6677,-2.6687,0,0,0,0,0,0,-2.6666,-2.6636,-2.6614,-2.6646,-2.6639,-2.6614,-2.6635,-2.6608,-2.6609,-2.6603,-2.6567,-2.6563,-2.6593,-2.6583,-2.6557,-2.6613,-2.6574,-2.6579,-2.6618,-2.663,-2.6639,-2.6641,-2.6505,0,0,0,0,0,-2.6684,-2.6694,-2.6667,-2.6698,-2.6695,-2.6666,-2.6669,-2.6646,-2.6638,-2.6634,-2.6619,-2.6612,-2.6618,-2.6623,-2.6628,-2.6667,-2.6662,-2.6688,-2.6697,-2.6705,-2.671,-2.6731,-2.6742,-2.6623,-2.6623,-2.6623,0,0,-2.6722,-2.6706,-2.6714,-2.671,-2.6702,-2.6713,-2.6664,-2.6678,-2.6686,-2.6637,-2.6658,-2.6647,-2.6637,-2.6669,-2.6682,-2.6662,-2.6742,-2.6711,-2.6717,-2.6718,-2.6737,-2.6748,-2.6758,-2.6627,-2.6626,-2.6626,0,0,-2.6796,-2.6785,-2.6809,-2.6802,-2.6789,-2.677,-2.6776,-2.6756,-2.6746,-2.6767,-2.673,-2.674,-2.6751,-2.6746,-2.6745,-2.6817,-2.6789,-2.6819,-2.6868,-2.6889,-2.6898,-2.6906,-2.6933,-2.6942,-2.6825,-2.6825,-2.6825,0,-2.6844,-2.6859,-2.6826,-2.6842,-2.6842,-2.6797,-2.6822,-2.6816,-2.6806,-2.6808,-2.6785,-2.6798,-2.6789,-2.6819,-2.6836,-2.6837,-2.6843,-2.6821,-2.6899,-2.6907,-2.6914,-2.6939,-2.6949,-2.6829,-2.6828,-2.6828,-2.6828,0,-2.6919,-2.6931,-2.6952,-2.6943,-2.6945,-2.6966,-2.6936,-2.6942,-2.692,-2.6903,-2.6925,-2.6912,-2.6913,-2.6918,-2.6897,-2.6946,-2.6933,-2.6906,-2.6865,-2.693,-2.6952,-2.6962,-2.6834,-2.6833,-2.6832,-2.6831,0,0,-2.7034,-2.7006,-2.7015,-2.701,-2.6993,-2.7001,-2.702,-2.7021,-2.7027,-2.7022,-2.7037,-2.7048,-2.7022,-2.7021,-2.6999,-2.7016,-2.7075,-2.6986,-2.6985,-2.7004,-2.7129,-2.7151,-2.7162,-2.7057,-2.7058,-2.7059,-2.713,0,-2.7105,-2.7135,-2.7105,-2.7142,-2.7152,-2.7109,-2.7126,-2.7118,-2.7103,-2.711,-2.7093,-2.7102,-2.7067,-2.7066,-2.7081,-2.7065,-2.71,-2.7059,-2.7072,-2.7072,-2.7076,-2.7174,-2.7196,-2.7264,-2.7139,-2.714,-2.7141,0,-2.7191,-2.7189,-2.7226,-2.7207,-2.721,-2.7225,-2.7223,-2.723,-2.7221,-2.7208,-2.7207,-2.7179,-2.7198,-2.7158,-2.7183,-2.7156,-2.7159,-2.7152,-2.7154,-2.7154,-2.7111,-2.7177,-2.7284,-2.7295,-2.7155,-2.7154,-2.7153,0,-2.7271,-2.7278,-2.7301,-2.7299,-2.7277,-2.7289,-2.728,-2.7268,-2.727,-2.7269,-2.727,-2.7271,-2.7272,-2.7274,-2.7248,-2.7221,-2.7276,-2.7235,-2.7267,-2.7268,-2.7281,-2.7281,-2.7391,-2.7283,-2.7283,-2.7283,-2.7282,0,-2.7353,-2.7378,-2.7337,-2.7352,-2.7378,-2.7344,-2.7372,-2.7359,-2.7349,-2.7361,-2.7324,-2.7336,-2.7301,-2.7309,-2.7289,-2.7313,-2.7314,-2.7305,-2.7299,-2.7308,-2.731,-2.731,-2.7305,-2.7285,-2.7285,-2.7284,-2.7284,0,-2.7448,-2.7422,-2.7444,-2.7421,-2.7416,-2.7437,-2.7418,-2.7431,-2.7413,-2.7428,-2.743,-2.7403,-2.7411,-2.7385,-2.7389,-2.7375,-2.7411,-2.7397,-2.7414,-2.741,-2.7445,-2.7442,-2.7559,-2.7573,-2.7456,-2.7457,-2.7458,0,-2.7502,-2.752,-2.7499,-2.7504,-2.7497,-2.7506,-2.7507,-2.7475,-2.7478,-2.7469,-2.7483,-2.7488,-2.749,-2.7505,-2.7486,-2.749,-2.7476,-2.7517,-2.7477,-2.7485,-2.7478,-2.7477,-2.7479,-2.7526,-2.7527,-2.7529,-2.7529,0,-2.7602,-2.7588,-2.7591,-2.759,-2.7593,-2.7592,-2.7587,-2.7593,-2.7559,-2.7565,-2.7572,-2.7574,-2.7578,-2.7584,-2.7583,-2.7575,-2.7547,-2.7542,-2.755,-2.756,-2.7569,-2.7565,-2.7437,-2.754,-2.7539,-2.7538,-2.7538,-2.7537,-2.7678,-2.7692,-2.7679,-2.7685,-2.7678,-2.7675,-2.7685,-2.7669,-2.7674,-2.7674,-2.7655,-2.7667,-2.7657,-2.7653,-2.7647,-2.7657,-2.7638,-2.7649,-2.7652,-2.7656,-2.7662,-2.7567,-2.7656,-2.7656,-2.7656,-2.7655,-2.7655,0,-2.7776,-2.7765,-2.7771,-2.7765,-2.777,-2.7742,-2.7736,-2.7742,-2.7752,-2.7745,-2.7747,-2.7757,-2.7762,-2.7743,-2.7746,-2.7757,-2.7745,-2.7759,-2.7758,-2.7757,-2.7678,-2.7671,-2.7769,-2.7769,-2.7769,-2.7769,-2.7769,-2.7769,-2.7827,-2.785,-2.7834,-2.7853,-2.7842,-2.7853,-2.7852,-2.7849,-2.7843,-2.7854,-2.7858,-2.7846,-2.7834,-2.7836,-2.784,-2.7834,-2.7838,-2.7857,-2.7847,-2.7774,-2.7763,-2.7752,-2.7745,-2.7858,-2.7858,-2.7925,-2.7926,-2.7926]},{"header":{"parameterUnit":"m.s-1","parameterCategory":1,"la1":30.2991,"la2":30.254,"lo1":-89.0895,"lo2":-89.0444,"dx":0.0017,"dy":0.0017,"nx":28,"ny":28,"refTime":"2022-11-08T09:00:00:Z","depth":0,"parameterNumber":3,"parameterNumberName":"V-component_of_WINDS"},"data":[0,0,0,0,0,0,0,0,0,0,0,0,0,0,0,0,0,0,0,0,0,0,0,0,0,0,0,0,0,0,0,0,0,0,0,0,0,0,0,0,0,0,0,0,0,0,0,0,0,0,0,0,0,0,0,0,0,0,-3.8832,-3.8834,0,-3.8941,-3.8942,-3.8943,-3.8948,-3.8947,-3.8946,-3.8945,-3.9051,-3.9055,-3.9059,0,0,0,0,0,0,0,0,0,0,0,0,0,-3.8626,-3.8629,-3.8832,-3.8834,-3.8835,-3.8941,-3.8942,-3.8943,-3.8949,-3.8947,-3.8945,-3.8944,-3.9049,-3.9054,-3.9059,0,0,0,0,0,0,0,0,0,0,0,0,0,-3.8723,-3.8631,-3.8832,-3.885,-3.8853,-3.894,-3.8942,-3.8944,-3.8949,-3.8947,-3.8945,-3.8943,-3.9048,-3.9054,-3.906,-3.9134,0,0,-3.9078,-3.908,0,0,0,0,0,0,0,0,-3.8717,-3.873,-3.8846,-3.8849,-3.8853,-3.8929,-3.8908,-3.9007,-3.8949,-3.8912,-3.8945,-3.8942,-3.9011,-3.902,-3.9045,-3.9139,-3.9144,-3.9078,-3.9082,-3.9085,-3.9086,0,0,0,0,0,0,0,-3.871,-3.8726,-3.8875,-3.8848,-3.8852,-3.8852,-3.8864,-3.8927,-3.8971,-3.8915,-3.8916,-3.8929,-3.9013,-3.9039,-3.9047,-3.9145,-3.9078,-3.9084,-3.9087,-3.909,-3.9307,-3.931,0,0,0,0,0,0,-3.8701,-3.872,-3.8872,-3.8878,-3.8779,-3.8857,-3.887,-3.8906,-3.897,-3.8978,-3.8931,-3.8929,-3.903,-3.904,-3.9051,-3.9144,-3.9085,-3.909,-3.9094,-3.9305,-3.9308,-3.931,0,0,0,0,0,0,-3.8696,-3.8714,-3.8867,-3.8799,-3.8819,-3.8863,-3.8903,-3.8909,-3.8936,-3.8982,-3.8989,-3.895,-3.9028,-3.9042,-3.9114,-3.9147,-3.9093,-3.9098,-3.9303,-3.9306,-3.9309,-3.9329,0,0,0,0,0,0,-3.869,-3.8713,-3.8742,-3.88,-3.8823,-3.893,-3.8905,-3.8913,-3.8947,-3.8945,-3.9002,-3.9009,-3.9028,-3.9105,-3.912,-3.9155,-3.9103,-3.93,-3.9304,-3.9308,-3.9326,-3.9332,-3.9338,0,0,0,0,0,-3.8683,-3.8742,-3.8744,-3.8762,-3.8861,-3.8932,-3.8944,-3.8967,-3.8949,-3.8979,-3.9009,-3.9007,-3.9141,-3.9112,-3.9129,-3.9166,-3.9298,-3.9303,-3.9308,-3.9323,-3.9331,-3.9338,0,0,0,0,0,0,-3.8685,-3.875,-3.8753,-3.8833,-3.8877,-3.8933,-3.8971,-3.8975,-3.9023,-3.902,-3.9044,-3.9057,-3.9128,-3.9154,-3.9121,-3.9242,-3.9217,-3.9226,-3.9223,-3.9231,-3.9238,-3.923,-3.9108,0,0,0,0,0,-3.8695,-3.8749,-3.8802,-3.8867,-3.889,-3.8927,-3.8958,-3.8972,-3.9018,-3.9036,-3.9071,-3.9114,-3.9167,-3.92,-3.925,-3.9329,-3.9341,-3.9363,-3.9369,-3.9374,-3.9381,-3.9426,-3.9436,-3.9327,-3.9326,-3.9326,0,0,-3.8716,-3.8758,-3.879,-3.8869,-3.8905,-3.8959,-3.8942,-3.9,-3.904,-3.9044,-3.9115,-3.9142,-3.9192,-3.9268,-3.9303,-3.9292,-3.9414,-3.938,-3.9384,-3.9389,-3.9432,-3.9442,-3.9452,-3.933,-3.9329,-3.9329,0,0,-3.8782,-3.8819,-3.8879,-3.8916,-3.8971,-3.8995,-3.9009,-3.9065,-3.9084,-3.9155,-3.916,-3.9207,-3.9296,-3.9332,-3.9362,-3.9443,-3.9443,-3.9458,-3.9492,-3.9535,-3.9544,-3.9552,-3.9581,-3.9592,-3.9465,-3.9465,-3.9465,0,-3.8801,-3.8884,-3.8908,-3.8967,-3.9001,-3.901,-3.907,-3.9103,-3.9171,-3.9195,-3.9181,-3.9294,-3.9328,-3.9413,-3.9433,-3.9457,-3.9473,-3.9452,-3.9541,-3.9549,-3.9557,-3.9585,-3.9596,-3.9467,-3.9467,-3.9466,-3.9466,0,-3.8905,-3.8962,-3.9003,-3.9072,-3.911,-3.9169,-3.9201,-3.9237,-3.9247,-3.9273,-3.9345,-3.9387,-3.9446,-3.9467,-3.9477,-3.9554,-3.9545,-3.9536,-3.9512,-3.9568,-3.9596,-3.9607,-3.9469,-3.9468,-3.9468,-3.9468,0,0,-3.8975,-3.9057,-3.9072,-3.9103,-3.9165,-3.921,-3.9268,-3.9329,-3.936,-3.9406,-3.9456,-3.9532,-3.9524,-3.9558,-3.9571,-3.9609,-3.9672,-3.9596,-3.9597,-3.9609,-3.976,-3.9767,-3.978,-3.9672,-3.9674,-3.9676,-3.9756,0,-3.9048,-3.9156,-3.918,-3.9272,-3.9325,-3.9334,-3.9386,-3.9429,-3.9454,-3.9502,-3.9529,-3.9583,-3.9568,-3.9589,-3.9626,-3.9656,-3.9702,-3.965,-3.9718,-3.9721,-3.9707,-3.9794,-3.9802,-3.9875,-3.9767,-3.9769,-3.977,0,-3.9149,-3.9201,-3.9299,-3.9355,-3.9379,-3.9424,-3.9482,-3.9528,-3.9577,-3.9592,-3.9631,-3.9641,-3.9701,-3.9674,-3.9758,-3.9722,-3.9751,-3.977,-3.9773,-3.9781,-3.9749,-3.9805,-3.9899,-3.9911,-3.9787,-3.9786,-3.9784,0,-3.9192,-3.9286,-3.9357,-3.9383,-3.9451,-3.9483,-3.9512,-3.9559,-3.9594,-3.9643,-3.9666,-3.9721,-3.9752,-3.9794,-3.9818,-3.9795,-3.99,-3.9874,-3.9914,-3.9914,-3.9937,-3.9935,-4.0038,-3.9954,-3.9953,-3.9953,-3.9953,0,-3.9272,-3.9332,-3.9377,-3.9421,-3.9488,-3.9515,-3.958,-3.9608,-3.965,-3.9699,-3.9709,-3.9754,-3.9783,-3.9832,-3.9851,-3.9918,-3.9931,-3.9945,-3.9949,-3.9945,-3.9943,-3.9965,-3.996,-3.9956,-3.9955,-3.9955,-3.9954,0,-3.9332,-3.9365,-3.9443,-3.9501,-3.9517,-3.9564,-3.9613,-3.9655,-3.9681,-3.9742,-3.9758,-3.9798,-3.9856,-3.9884,-3.9956,-3.9969,-4.0045,-4.0045,-4.0029,-4.0031,-4.007,-4.0067,-4.0191,-4.0209,-4.0112,-4.0113,-4.0114,0,-3.9382,-3.9428,-3.9492,-3.9527,-3.9557,-3.9612,-3.9649,-3.9676,-3.9713,-3.9773,-3.9808,-3.9867,-3.9916,-4.0008,-4.0043,-4.0098,-4.01,-4.014,-4.0108,-4.0103,-4.0102,-4.01,-4.0105,-4.0146,-4.0147,-4.0148,-4.0148,0,-3.9467,-3.9481,-3.9535,-3.9594,-3.9638,-3.9685,-3.9732,-3.9759,-3.9793,-3.9834,-3.9895,-3.9933,-4.0008,-4.0066,-4.0124,-4.0152,-4.0156,-4.0158,-4.017,-4.0167,-4.0156,-4.0163,-4.0046,-4.0155,-4.0154,-4.0154,-4.0154,-4.0153,-3.9524,-3.9567,-3.9619,-3.9678,-3.9716,-3.976,-3.9803,-3.9835,-3.9887,-3.9951,-3.9963,-4.0028,-4.0076,-4.0154,-4.0184,-4.0234,-4.0225,-4.0243,-4.0248,-4.0252,-4.0255,-4.0147,-4.0245,-4.0244,-4.0244,-4.0244,-4.0244,0,-3.9611,-3.9645,-3.97,-3.9766,-3.9812,-3.9814,-3.9865,-3.9903,-3.9961,-4.0006,-4.0055,-4.0125,-4.0182,-4.0221,-4.0279,-4.0312,-4.0315,-4.0326,-4.0324,-4.0331,-4.0259,-4.0243,-4.0323,-4.0323,-4.0322,-4.0322,-4.0322,-4.0322,-3.9662,-3.9734,-3.9755,-3.9846,-3.9879,-3.9945,-3.9974,-4.0014,-4.0051,-4.013,-4.0178,-4.0204,-4.0246,-4.0307,-4.036,-4.037,-4.0391,-4.0402,-4.0412,-4.0344,-4.0336,-4.0328,-4.0313,-4.0406,-4.0406,-4.048,-4.0481,-4.0481]}]]